Погода в Михееве

Россия / Калужская область     54°50′03″N   36°19′47″E
темп.,
°C
ветер,
м/с
пор.,
м/с
влажн.,
%
обл.,
%
осадки,
мм/ч
давл.,
гПа
погр.,
м
15 мая, сб
сб1500:00+13в3497100 2.4 100970
03:00+13юв369697 2.4 100893
06:00+14ю36966 0.0 1007138
09:00+18ююз468296 0.2 1008435
12:00+20ююз576397 0.3 10081508
15:00+21ююз685574 0.9 10082476
18:00+17ю5107899 1.6 1008665
21:00+14ю5139289 4.1 1009376
16 мая, вс
вс1600:00+12ююз5129532 0.0 1010348
03:00+11ююз49978 0.0 1011239
06:00+11ююз39979 0.0 1012271
09:00+16ююз588219 0.0 1012660
12:00+19ююз676826 0.4 10131365
15:00+20юз5763100 0.8 10131693
18:00+19юз257213 0.1 1013304
21:00+14ююв128566 0.1 101411
17 мая, пн
пн1700:00+13юв229039 0.0 101414
03:00+12вюв229191 0.0 101428
06:00+12вюв3689100 0.0 1014133
09:00+19в587170 0.0 1013490
12:00+23вюв686375 0.0 10121005
15:00+25юв6106140 0.0 10101272
18:00+23вюв61267100 0.0 1008688
21:00+20вюв6157596 0.0 1008590
18 мая, вт
вт1800:00+18юв61580100 0.0 1007460
03:00+16вюв51285100 0.0 1006303
06:00+15юв51383100 0.0 1006331
09:00+20юв61175100 0.0 1005572
12:00+23юв81167100 0.0 10041339
15:00+23ююв7156799 1.5 10031676
18:00+19ююв8158088 0.8 10041312
21:00+16ю5128846 0.8 1005578
19 мая, ср
ср1900:00+14юв39969 0.0 1005230
03:00+13юв4997100 0.0 1004225
06:00+14юв41192100 0.1 1003375
09:00+18ююв61282100 0.8 1002854
12:00+17ююв71085100 1.3 1000998
15:00+15ю61190100 3.6 1000902
18:00+12юз61392100 1.3 1000662
21:00+10зюз61296100 2.2 1003738